This demonstration page uses our WeatherBlox Daily Observations layout. Learn more.

Hourly Observations for August 29, 2015

Temp ( °F °C ) Dew Point ( °F °C ) Humidity (%) Winds ( mph kmh ) Pressure ( in mb ) Visibility ( mi km ) Precip ( " mm )
12:15 am 00:15 Clear 60 15.6 58 14.5 93 93 W 3 6 30.03 1017 10 16.0934 0 0
12:35 am 00:35 Clear 60 15.8 58 14.7 93 93 W 5 7 30.03 1017 10 16.0934 0 0
12:55 am 00:55 Clear 61 16.2 58 14.6 90 90 WNW 5 7 30.06 1018 10 16.0934 0 0
1:15 am 01:15 Clear 60 15.3 57 14 92 92 WNW 6 9 30.06 1018 10 16.0934 0 0
1:35 am 01:35 Clear 59 15.2 57 13.8 91 91 WNW 5 7 30.06 1018 10 16.0934 0 0
1:55 am 01:55 Clear 59 14.8 56 13.5 92 92 WNW 3 6 30.03 1017 10 16.0934 0 0
2:15 am 02:15 Clear 59 14.8 57 13.7 93 93 WNW 5 7 30.06 1018 10 16.0934 0 0
2:35 am 02:35 Clear 58 14.5 56 13.3 93 93 NW 6 9 30.06 1018 10 16.0934 0 0
2:55 am 02:55 Clear 58 14.4 56 13.1 92 92 W 3 6 30.03 1017 10 16.0934 0 0
3:15 am 03:15 Clear 58 14.7 56 13.5 93 93 W 7 11 30.06 1018 10 16.0934 0 0
3:35 am 03:35 Clear 58 14.5 56 13.3 93 93 WNW 5 7 30.03 1017 10 16.0934 0 0
3:55 am 03:55 Clear 57 13.9 55 12.8 93 93 Calm 30.06 1018 10 16.0934 0 0
4:15 am 04:15 Clear 57 13.8 55 13 95 95 Calm 30.06 1018 10 16.0934 0 0
4:35 am 04:35 Clear with Mist and Fog 56 13.4 55 12.5 94 94 Calm 30.06 1018 5 8.0467 0 0
4:55 am 04:55 Clear with Mist and Fog 54 12.4 53 11.6 95 95 Calm 30.09 1019 5 8.0467 0 0
5:15 am 05:15 Clear 55 12.5 53 11.7 95 95 Calm 30.09 1019 7 11.26538 0 0
5:35 am 05:35 Clear with Mist and Fog 55 12.6 53 11.9 96 96 Calm 30.09 1019 4 6.43736 0 0
5:55 am 05:55 Clear with Mist and Fog 55 13 54 12.3 96 96 Calm 30.09 1019 4 6.43736 0 0
6:15 am 06:15 Clear with Mist and Fog 54 12.3 53 11.6 96 96 Calm 30.09 1019 4 6.43736 0 0
6:35 am 06:35 Clear with Mist and Fog 54 12.2 53 11.6 96 96 Calm 30.09 1019 3 4.82802 0 0
6:55 am 06:55 Mostly Cloudy with Mist and Fog 54 12.4 53 11.8 96 96 Calm 30.09 1019 1.75 2.816345 0 0
7:15 am 07:15 Sunny with Mist and Fog 54 12.2 53 11.6 96 96 Calm 30.12 1020 2.5 4.02335 0 0
7:35 am 07:35 Mostly Cloudy with Mist and Fog 55 12.6 54 12 96 96 NW 3 6 30.12 1020 1 1.60934 0 0
7:55 am 07:55 Sunny with Mist and Fog 55 13 55 12.5 97 97 NW 5 7 30.12 1020 2.5 4.02335 0 0
8:15 am 08:15 Sunny with Mist and Fog 56 13.5 55 12.9 96 96 NNW 5 7 30.09 1019 3 4.82802 0 0
8:35 am 08:35 Sunny with Mist and Fog 58 14.5 57 13.9 96 96 Calm 30.09 1019 5 8.0467 0 0
8:55 am 08:55 Sunny 60 15.8 59 15.2 96 96 Calm 30.09 1019 7 11.26538 0 0
9:15 am 09:15 Sunny 63 17 61 16 94 94 N 5 7 30.09 1019 10 16.0934 0 0
9:35 am 09:35 Sunny 64 18 62 16.5 91 91 N 3 6 30.06 1018 10 16.0934 0 0
9:55 am 09:55 Sunny 65 18.6 61 16.3 87 87 NNW 3 6 30.06 1018 10 16.0934 0 0
10:15 am 10:15 Sunny 67 19.6 62 16.7 83 83 N 3 6 30.06 1018 10 16.0934 0 0
10:35 am 10:35 Sunny 69 20.5 62 16.8 79 79 N 5 7 30.03 1017 10 16.0934 0 0
10:55 am 10:55 Sunny 70 21.3 63 17.4 79 79 N 3 6 30.03 1017 10 16.0934 0 0
11:15 am 11:15 Sunny 72 22.3 63 17.4 74 74 Calm 30.03 1017 10 16.0934 0 0
11:35 am 11:35 Sunny 73 22.7 63 17.4 72 72 N 3 6 30.03 1017 10 16.0934 0 0
11:55 am 11:55 Sunny 74 23.5 63 17.4 69 69 NW 5 7 30.03 1017 10 16.0934 0 0
12:15 pm 12:15 Sunny 75 24 63 17.3 66 66 NNW 3 6 30.03 1017 10 16.0934 0 0
12:35 pm 12:35 Sunny 76 24.6 63 17.2 64 64 NNW 5 7 30 1016 10 16.0934 0 0
12:55 pm 12:55 Sunny 78 25.4 63 17.3 61 61 NW 3 6 30 1016 10 16.0934 0 0
1:15 pm 13:15 Sunny 79 25.9 63 17 58 58 NW 5 7 30 1016 10 16.0934 0 0
1:35 pm 13:35 Sunny 79 26 63 17.2 58 58 Calm 30 1016 10 16.0934 0 0
1:55 pm 13:55 Sunny 80 26.4 63 17.2 57 57 N 3 6 29.97 1015 10 16.0934 0 0
2:15 pm 14:15 Sunny 80 26.8 61 16.2 52 52 N 3 6 29.97 1015 10 16.0934 0 0
2:35 pm 14:35 Sunny 81 27.3 61 16.1 50 50 Calm 29.97 1015 10 16.0934 0 0
2:55 pm 14:55 Sunny 81 27.4 62 16.7 52 52 NE 5 7 29.97 1015 10 16.0934 0 0
3:15 pm 15:15 Sunny 82 27.5 62 16.4 51 51 ENE 6 9 29.94 1014 10 16.0934 0 0
3:35 pm 15:35 Sunny 82 28 61 16.2 49 49 E 6 9 29.94 1014 10 16.0934 0 0
3:55 pm 15:55 Sunny 82 28 61 16 48 48 E 5 7 29.94 1014 10 16.0934 0 0
4:15 pm 16:15 Sunny 82 27.6 63 17.2 53 53 E 7 11 29.91 1013 10 16.0934 0 0
4:35 pm 16:35 Sunny 82 27.8 62 16.5 50 50 E 5 7 29.91 1013 10 16.0934 0 0
4:55 pm 16:55 Sunny 82 27.8 62 16.8 51 51 E 7 11 29.91 1013 10 16.0934 0 0
5:15 pm 17:15 Sunny 82 27.7 62 16.8 51 51 ESE 7 11 29.91 1013 10 16.0934 0 0
5:35 pm 17:35 Sunny 82 27.6 60 15.4 47 47 E 7 11 29.91 1013 10 16.0934 0 0
5:55 pm 17:55 Sunny 81 27.3 61 16.1 50 50 ESE 8 13 29.94 1014 10 16.0934 0 0
6:15 pm 18:15 Sunny 81 27.1 62 16.7 53 53 ESE 7 11 29.94 1014 10 16.0934 0 0
6:35 pm 18:35 Sunny 80 26.8 62 16.9 55 55 ESE 7 11 29.94 1014 10 16.0934 0 0
6:55 pm 18:55 Sunny 79 26.1 62 16.4 55 55 ESE 6 9 29.94 1014 10 16.0934 0 0
7:15 pm 19:15 Sunny 77 25 62 16.6 60 60 ESE 6 9 29.94 1014 10 16.0934 0 0
7:35 pm 19:35 Sunny 75 23.7 63 17 66 66 SE 6 9 29.94 1014 10 16.0934 0 0
7:55 pm 19:55 Sunny 73 22.6 63 17.3 72 72 SE 6 9 29.97 1015 10 16.0934 0 0
8:15 pm 20:15 Clear 69 20.8 63 17.1 79 79 SE 5 7 29.94 1014 10 16.0934 0 0
8:35 pm 20:35 Clear 67 19.5 62 16.6 83 83 SE 3 6 30 1016 10 16.0934 0 0
8:55 pm 20:55 Clear 69 20.3 63 17.2 82 82 SSE 3 6 30 1016 10 16.0934 0 0
9:15 pm 21:15 Clear 64 17.9 60 15.5 86 86 Calm 30 1016 10 16.0934 0 0
9:35 pm 21:35 Clear 63 17.2 60 15.3 89 89 SE 6 9 30 1016 10 16.0934 0 0
9:55 pm 21:55 Clear 64 17.8 60 15.4 86 86 SE 7 11 30 1016 10 16.0934 0 0
10:15 pm 22:15 Clear 64 17.6 59 15.2 86 86 SE 7 11 30 1016 10 16.0934 0 0
10:35 pm 22:35 Clear 64 17.6 59 15 85 85 SSE 7 11 30 1016 10 16.0934 0 0
10:55 pm 22:55 Clear 63 17.3 58 14.4 83 83 SSE 7 11 30 1016 10 16.0934 0 0
11:15 pm 23:15 Clear 63 17.2 58 14.2 83 83 SSE 7 11 30 1016 10 16.0934 0 0
11:35 pm 23:35 Clear 63 17.3 58 14.2 82 82 SSE 7 11 30 1016 10 16.0934 0 0
11:55 pm 23:55 Clear 63 17.2 58 14.3 83 83 S 3 6 30 1016 10 16.0934 0 0

Powered by AerisWeather